Overview Statistics Trail Chart Weather Telemetry Raw packets
 

This is the latest recevied weather packets stored in our database for station/object DO1BDB-12. If no packets are shown the sender has not sent any weather packets the latest 10 day(s).

<< 359 360 361 362 363 364 365 >>
Time Temp. Humidity Pressure Rain* Wind** Luminosity Snow
1788082312 22.22° C 67% 100.8 hPa - - - -
1788082247 22.22° C 66% 100.8 hPa - - - -
1788082181 22.22° C 66% 100.8 hPa - - - -
1788082115 22.22° C 66% 100.8 hPa - - - -
1788082049 22.78° C 65% 100.8 hPa - - - -
1788081983 22.78° C 65% 100.8 hPa - - - -
1788081917 23.33° C 63% 100.7 hPa - - - -
1788081851 23.89° C 62% 100.8 hPa - - - -
1788081785 23.89° C 63% 100.8 hPa - - - -
1788081720 22.78° C 64% 100.8 hPa - - - -
1788081654 23.33° C 64% 100.8 hPa - - - -
1788081588 22.78° C 65% 100.8 hPa - - - -
1788081522 22.78° C 63% 100.8 hPa - - - -
1788081456 23.33° C 63% 100.8 hPa - - - -
1788081390 23.33° C 62% 100.8 hPa - - - -
1788081324 23.89° C 62% 100.8 hPa - - - -
1788081259 23.33° C 65% 100.8 hPa - - - -
1788081193 23.33° C 64% 100.8 hPa - - - -
1788081127 22.78° C 64% 100.7 hPa - - - -
1788081061 23.33° C 65% 100.8 hPa - - - -
1788080995 22.22° C 66% 100.7 hPa - - - -
1788080930 21.67° C 66% 100.7 hPa - - - -
1788080864 22.22° C 65% 100.8 hPa - - - -
1788080798 22.78° C 67% 100.7 hPa - - - -
1788080732 21.11° C 69% 100.8 hPa - - - -

* Rain since midnight (hover to see other rain measurements)
** Current wind speed in m/s (hover to see current wind gust speed)